• In Lithuania
  • List of Countries
  • For 7 days
  • Water Temperature
  • Satellite Maps
  • Weather Map
  • Weather Widgets
  • user-avatar
    Login

    Hourly Weather Russocice

    Today, 17 July, Tuesday

    Time Temperature Precipitation Wind Pressure Humidity
    00:00 +18°C° 0.3 mm 3 mps 747 mmHg 94%
    01:00 +19°C° 0 mm 2 mps 746 mmHg 96%
    02:00 +19°C° 1.6 mm 3 mps 746 mmHg 96%
    03:00 +19°C° 1.6 mm 3 mps 746 mmHg 96%
    04:00 +19°C° 1.6 mm 3 mps 746 mmHg 96%
    05:00 +19°C° 1.7 mm 3 mps 746 mmHg 96%
    06:00 +19°C° 1.7 mm 3 mps 746 mmHg 95%
    07:00 +19°C° 0 mm 4 mps 746 mmHg 94%
    08:00 +19°C° 2 mm 4 mps 745 mmHg 93%
    09:00 +19°C° 2 mm 4 mps 745 mmHg 91%
    10:00 +20°C° 2 mm 4 mps 745 mmHg 90%
    11:00 +20°C° 1 mm 4 mps 745 mmHg 87%
    12:00 +21°C° 1 mm 4 mps 745 mmHg 84%
    13:00 +22°C° 1 mm 5 mps 745 mmHg 82%
    14:00 +22°C° 0.5 mm 5 mps 745 mmHg 80%
    15:00 +23°C° 0.5 mm 5 mps 745 mmHg 79%
    16:00 +23°C° 0.5 mm 5 mps 745 mmHg 78%
    17:00 +22°C° 0.3 mm 5 mps 744 mmHg 82%
    18:00 +21°C° 0.3 mm 5 mps 744 mmHg 85%
    19:00 +21°C° 0.3 mm 4 mps 744 mmHg 89%
    20:00 +20°C° 0.1 mm 4 mps 744 mmHg 91%
    21:00 +20°C° 0.1 mm 4 mps 744 mmHg 94%
    22:00 +19°C° 0.1 mm 4 mps 744 mmHg 96%
    23:00 +19°C° 0.5 mm 4 mps 744 mmHg 96%

    Tomorrow, 18 July, Wednesday

    Time Temperature Precipitation Wind Pressure Humidity
    00:00 +19°C° 0.5 mm 4 mps 744 mmHg 96%
    01:00 +19°C° 0.5 mm 4 mps 744 mmHg 96%
    02:00 +19°C° 0.7 mm 4 mps 744 mmHg 96%
    03:00 +19°C° 0.7 mm 4 mps 744 mmHg 97%
    04:00 +19°C° 0.7 mm 4 mps 744 mmHg 97%
    05:00 +20°C° 0.5 mm 4 mps 744 mmHg 96%
    06:00 +20°C° 0.5 mm 4 mps 744 mmHg 95%
    07:00 +21°C° 0.5 mm 4 mps 744 mmHg 94%
    08:00 +21°C° 0.2 mm 4 mps 744 mmHg 91%
    09:00 +22°C° 0.2 mm 4 mps 745 mmHg 88%
    10:00 +23°C° 0.2 mm 4 mps 745 mmHg 85%
    11:00 +25°C° 0.6 mm 5 mps 745 mmHg 83%
    12:00 +26°C° 0.6 mm 5 mps 745 mmHg 80%
    13:00 +26°C° 0.6 mm 5 mps 745 mmHg 77%
    14:00 +26°C° 0.9 mm 6 mps 746 mmHg 78%
    15:00 +26°C° 0.9 mm 6 mps 746 mmHg 79%
    16:00 +26°C° 0.9 mm 7 mps 746 mmHg 79%
    17:00 +24°C° 0.6 mm 7 mps 746 mmHg 83%
    18:00 +23°C° 0.6 mm 6 mps 746 mmHg 86%
    19:00 +22°C° 0.6 mm 6 mps 747 mmHg 89%
    20:00 +21°C° 1.1 mm 6 mps 747 mmHg 91%
    21:00 +21°C° 1.1 mm 6 mps 747 mmHg 92%
    22:00 +20°C° 1.1 mm 6 mps 748 mmHg 94%
    23:00 +20°C° 0.7 mm 6 mps 748 mmHg 94%

    Day after tomorrow, 19 July, Thursday

    Time Temperature Precipitation Wind Pressure Humidity
    00:00 +20°C° 0.7 mm 5 mps 748 mmHg 95%
    01:00 +19°C° 0.7 mm 5 mps 748 mmHg 95%
    02:00 +19°C° 0.4 mm 5 mps 748 mmHg 95%
    03:00 +19°C° 0.4 mm 5 mps 748 mmHg 96%
    04:00 +19°C° 0.4 mm 4 mps 748 mmHg 96%
    05:00 +19°C° 0.3 mm 4 mps 748 mmHg 95%
    06:00 +20°C° 0.3 mm 4 mps 748 mmHg 94%
    07:00 +20°C° 0.3 mm 4 mps 748 mmHg 92%
    08:00 +21°C° 0.2 mm 4 mps 749 mmHg 89%
    09:00 +22°C° 0.2 mm 4 mps 749 mmHg 85%
    10:00 +23°C° 0.2 mm 4 mps 749 mmHg 81%
    11:00 +25°C° 0.4 mm 4 mps 749 mmHg 77%
    12:00 +26°C° 0.4 mm 4 mps 749 mmHg 72%
    13:00 +27°C° 0.4 mm 4 mps 749 mmHg 68%
    14:00 +27°C° 0.6 mm 4 mps 749 mmHg 70%
    15:00 +26°C° 0.6 mm 5 mps 749 mmHg 72%
    16:00 +26°C° 0.6 mm 5 mps 749 mmHg 74%
    17:00 +25°C° 0.5 mm 5 mps 749 mmHg 78%
    18:00 +23°C° 0.5 mm 5 mps 749 mmHg 81%
    19:00 +22°C° 0.5 mm 5 mps 749 mmHg 85%
    20:00 +21°C° 0.1 mm 4 mps 750 mmHg 88%
    21:00 +21°C° 0.1 mm 4 mps 750 mmHg 90%
    22:00 +20°C° 0.1 mm 4 mps 750 mmHg 93%
    23:00 +19°C° 0.1 mm 4 mps 750 mmHg 93%

    20 July, Friday

    Time Temperature Precipitation Wind Pressure Humidity
    00:00 +19°C° 0.1 mm 4 mps 750 mmHg 94%
    01:00 +19°C° 0.1 mm 4 mps 750 mmHg 95%
    02:00 +19°C° 0.1 mm 4 mps 750 mmHg 95%
    03:00 +18°C° 0.1 mm 4 mps 750 mmHg 95%
    04:00 +18°C° 0.1 mm 3 mps 750 mmHg 95%
    05:00 +18°C° 0.1 mm 3 mps 750 mmHg 93%
    06:00 +19°C° 0.1 mm 4 mps 750 mmHg 91%
    07:00 +19°C° 0.1 mm 4 mps 750 mmHg 89%
    08:00 +20°C° 0 mm 4 mps 750 mmHg 84%
    09:00 +21°C° 0 mm 4 mps 750 mmHg 80%
    10:00 +22°C° 0 mm 4 mps 750 mmHg 75%
    11:00 +23°C° 0.1 mm 4 mps 750 mmHg 72%
    12:00 +25°C° 0.1 mm 5 mps 750 mmHg 69%
    13:00 +26°C° 0.1 mm 5 mps 750 mmHg 65%
    14:00 +26°C° 0.1 mm 5 mps 750 mmHg 66%
    15:00 +26°C° 0.1 mm 5 mps 749 mmHg 67%
    16:00 +26°C° 0.1 mm 5 mps 749 mmHg 67%
    17:00 +25°C° 0.1 mm 5 mps 749 mmHg 72%
    18:00 +23°C° 0.1 mm 4 mps 749 mmHg 76%
    19:00 +22°C° 0.1 mm 4 mps 749 mmHg 80%
    20:00 +21°C° 0 mm 3 mps 749 mmHg 83%
    21:00 +20°C° 0 mm 3 mps 749 mmHg 85%
    22:00 +19°C° 0 mm 3 mps 749 mmHg 87%
    23:00 +18°C° 0 mm 3 mps 749 mmHg 89%

    21 July, Saturday

    Time Temperature Precipitation Wind Pressure Humidity
    00:00 +18°C° 0 mm 3 mps 749 mmHg 90%
    01:00 +17°C° 0 mm 2 mps 749 mmHg 91%
    02:00 +16°C° 0 mm 2 mps 749 mmHg 91%
    03:00 +16°C° 0 mm 2 mps 749 mmHg 90%
    04:00 +15°C° 0 mm 2 mps 749 mmHg 90%
    05:00 +17°C° 0 mm 2 mps 749 mmHg 86%
    06:00 +18°C° 0 mm 3 mps 749 mmHg 81%
    07:00 +19°C° 0 mm 3 mps 749 mmHg 77%
    08:00 +21°C° 0 mm 3 mps 749 mmHg 71%
    09:00 +22°C° 0 mm 3 mps 749 mmHg 65%
    10:00 +25°C° 0 mm 3 mps 749 mmHg 59%
    11:00 +25°C° 0 mm 3 mps 748 mmHg 57%
    12:00 +26°C° 0 mm 4 mps 748 mmHg 55%
    13:00 +27°C° 0 mm 4 mps 748 mmHg 53%
    14:00 +27°C° 0 mm 4 mps 748 mmHg 53%
    15:00 +27°C° 0 mm 3 mps 748 mmHg 53%
    16:00 +27°C° 0 mm 3 mps 747 mmHg 54%
    17:00 +26°C° 0 mm 3 mps 747 mmHg 59%
    18:00 +25°C° 0 mm 3 mps 747 mmHg 64%
    19:00 +24°C° 0 mm 2 mps 747 mmHg 69%
    20:00 +23°C° 0 mm 2 mps 748 mmHg 73%
    21:00 +20°C° 0 mm 2 mps 748 mmHg 76%
    22:00 +19°C° 0 mm 2 mps 748 mmHg 79%
    23:00 +19°C° 0 mm 2 mps 748 mmHg 82%

    22 July, Sunday

    Time Temperature Precipitation Wind Pressure Humidity
    00:00 +18°C° 0 mm 2 mps 748 mmHg 85%
    01:00 +17°C° 0 mm 2 mps 748 mmHg 88%
    02:00 +17°C° 0 mm 2 mps 748 mmHg 89%
    03:00 +16°C° 0 mm 2 mps 748 mmHg 89%
    04:00 +16°C° 0 mm 2 mps 748 mmHg 90%
    05:00 +17°C° 0 mm 2 mps 748 mmHg 86%
    06:00 +18°C° 0 mm 2 mps 748 mmHg 81%
    07:00 +19°C° 0 mm 2 mps 749 mmHg 77%
    08:00 +20°C° 0 mm 3 mps 749 mmHg 73%
    09:00 +21°C° 0 mm 3 mps 749 mmHg 69%
    10:00 +22°C° 0 mm 3 mps 749 mmHg 65%
    11:00 +24°C° 0 mm 3 mps 749 mmHg 61%
    12:00 +25°C° 0 mm 4 mps 749 mmHg 56%
    13:00 +26°C° 0 mm 4 mps 749 mmHg 52%
    14:00 +26°C° 0 mm 4 mps 749 mmHg 52%
    15:00 +26°C° 0 mm 4 mps 749 mmHg 53%
    16:00 +26°C° 0 mm 4 mps 749 mmHg 53%
    17:00 +25°C° 0 mm 4 mps 749 mmHg 60%
    18:00 +22°C° 0 mm 3 mps 749 mmHg 66%
    19:00 +21°C° 0 mm 3 mps 749 mmHg 73%
    20:00 +20°C° 0 mm 3 mps 749 mmHg 76%
    21:00 +19°C° 0 mm 2 mps 750 mmHg 79%
    22:00 +18°C° 0 mm 2 mps 750 mmHg 82%
    23:00 +18°C° 0 mm 2 mps 750 mmHg 84%
    Show more